Weather History for Cross City, FL

Change the Weather History Date:

Monday, April 28, 2014

  Actual Average Record
Temperature  
Mean Temperature 76 °F 69 °F  
Max Temperature 87 °F 83 °F 89 °F (2012)
Min Temperature 64 °F 56 °F 45 °F (2004)
Degree Days  
Heating Degree Days 0 1  
Month to date heating degree days 20 49  
Since 1 July heating degree days 1180 1304  
Cooling Degree Days 11 5  
Month to date cooling degree days 109 97  
Year to date cooling degree days 161 171  
Growing Degree Days 26 (Base 50)    
Moisture  
Dew Point 66 °F    
Average Humidity 72    
Maximum Humidity 100    
Minimum Humidity 43    
Precipitation  
Precipitation 0.00 in 0.05 in 1.15 in (2011)
Month to date precipitation 3.83 2.86  
Year to date precipitation 18.94 14.38  
Sea Level Pressure  
Sea Level Pressure 29.92 in    
Wind  
Wind Speed 7 mph (South)    
Max Wind Speed 16 mph    
Max Gust Speed 22 mph    
T = Trace of Precipitation, MM = Missing Value Source: NWS Daily Summary

Daily Weather History Graph

Daily Weather History Graph

Search for Another Location

Airport:

Trip Planner

Search our weather history database for the weather conditions in past years. The results will help you decide how hot, cold, wet, or windy it might be!

Date:

Astronomy

Apr. 28, 2014 Rise Set
Actual Time 6:52 AM EDT 8:07 PM EDT
Civil Twilight 6:27 AM EDT 8:32 PM EDT
Nautical Twilight 5:57 AM EDT 9:02 PM EDT
Astronomical Twilight 5:27 AM EDT 9:33 PM EDT
Moon 6:25 AM EDT (4/28) 7:46 PM EDT (4/28)
Length of Visible Light 14h 04m
Length of Day
13h 14m
Waning Crescent, 0% of the Moon is Illuminated
Apr 28
Waning Crescent
Apr 29
New
May 6
First Quarter
May 14
Full
May 21
Last Quarter

Hourly Weather History & Observations

Time (EDT) Temp. Heat Index Dew Point Humidity Pressure Visibility Wind Dir Wind Speed Gust Speed Precip Events Conditions
12:53 AM 68.0 °F - 66.9 °F 96% 29.94 in - SSE 3.5 mph - N/A   Unknown
1:53 AM 68.0 °F - 66.0 °F 93% 29.95 in - SE 4.6 mph - N/A   Unknown
2:53 AM 68.0 °F - 66.0 °F 93% 29.93 in - Calm Calm - N/A   Unknown
3:53 AM 66.0 °F - 64.0 °F 93% 29.92 in - Calm Calm - N/A   Unknown
4:53 AM 68.0 °F - 64.9 °F 90% 29.92 in - Calm Calm - N/A   Unknown
5:53 AM 64.9 °F - 63.0 °F 93% 29.92 in - Calm Calm - N/A   Unknown
6:53 AM 68.0 °F - 66.0 °F 93% 29.92 in - Calm Calm - N/A   Unknown
7:53 AM 70.0 °F - 69.1 °F 97% 29.94 in - SE 3.5 mph - 0.01 in   Unknown
8:53 AM 73.9 °F - 70.0 °F 87% 29.94 in - North - - N/A   Unknown
9:53 AM 79.0 °F - 72.0 °F 79% 29.95 in - North - - N/A   Unknown
10:53 AM 80.6 °F 84.6 °F 71.6 °F 74% 29.96 in - SSW 11.5 mph - N/A   Unknown
11:53 AM 84.9 °F 88.2 °F 68.0 °F 57% 29.95 in - South 12.7 mph 19.6 mph N/A   Unknown
12:53 PM 84.9 °F 86.1 °F 64.0 °F 49% 29.95 in - SSW 15.0 mph - N/A   Unknown
1:53 PM 84.0 °F 85.8 °F 64.9 °F 53% 29.94 in - SSW 13.8 mph 19.6 mph N/A   Unknown
2:53 PM 87.1 °F 87.8 °F 63.0 °F 44% 29.94 in - SSW 15.0 mph 19.6 mph N/A   Unknown
3:53 PM 86.0 °F 86.3 °F 62.1 °F 44% 29.92 in - SSW 11.5 mph - N/A   Unknown
4:53 PM 84.0 °F 86.5 °F 66.9 °F 56% 29.91 in - SW 10.4 mph 17.3 mph N/A   Unknown
5:53 PM 84.0 °F 85.4 °F 64.0 °F 51% 29.90 in - South 12.7 mph - N/A   Unknown
6:53 PM 82.0 °F 83.4 °F 64.0 °F 54% 29.88 in - SW 8.1 mph - N/A   Unknown
7:53 PM 78.1 °F - 64.9 °F 64% 29.88 in - SW 4.6 mph - N/A   Unknown
8:53 PM 73.0 °F - 66.0 °F 79% 29.88 in - SSE 3.5 mph - N/A   Unknown
9:53 PM 71.1 °F - 66.9 °F 87% 29.88 in - South 3.5 mph - 0.01 in   Unknown
10:53 PM 70.0 °F - 66.9 °F 90% 29.89 in - Calm Calm - N/A   Unknown
11:53 PM 70.0 °F - 68.0 °F 93% 29.88 in - Calm Calm - N/A   Unknown